DW5010 Weather Reports


Display with metric or nautical units.
time (UTC)temp
F
wind
direction
speed
MPH
gust
MPH
rain 1hr
in
rain 24hr
in
rain mn
in
humidity
%
barometer
mb
20260906195018 76 91 1.0 4.0 0.00 0.00 0.00 64 1019.8
20260906194534 76 71 1.0 5.0 0.00 0.00 0.00 61 1019.8
20260906194018 76 12 2.0 5.0 0.00 0.00 0.00 61 1020.0
20260906193518 77 57 2.0 4.0 0.00 0.00 0.00 64 1019.9
20260906193034 77 30 1.0 4.0 0.00 0.00 0.00 62 1019.9
20260906192517 77 120 1.0 4.0 0.00 0.00 0.00 65 1019.9
20260906192017 77 45 1.0 5.0 0.00 0.00 0.00 63 1020.0
20260906191541 77 0 1.0 5.0 0.00 0.00 0.00 63 1020.1
20260906191018 76 11 1.0 5.0 0.00 0.00 0.00 65 1020.0
20260906190518 76 105 1.0 4.0 0.00 0.00 0.00 64 1020.1
20260906190035 76 138 1.0 7.0 0.00 0.00 0.00 65 1020.0
20260906185518 76 119 2.0 7.0 0.00 0.00 0.00 63 1019.9
20260906185019 76 96 1.0 6.0 0.00 0.00 0.00 64 1020.1
20260906184534 76 95 1.0 6.0 0.00 0.00 0.00 65 1020.1
20260906184021 76 47 1.0 7.0 0.00 0.00 0.00 63 1019.9
20260906183519 76 13 2.0 7.0 0.00 0.00 0.00 62 1020.0
20260906183040 76 225 2.0 7.0 0.00 0.00 0.00 63 1020.0
20260906182518 77 109 2.0 7.0 0.00 0.00 0.00 62 1020.0
20260906182016 77 61 2.0 5.0 0.00 0.00 0.00 62 1020.0
20260906181535 77 15 2.0 8.0 0.00 0.00 0.00 61 1020.1
20260906181018 77 87 2.0 8.0 0.00 0.00 0.00 61 1020.0
20260906180516 77 36 1.0 4.0 0.00 0.00 0.00 62 1020.0
20260906180043 77 115 1.0 4.0 0.00 0.00 0.00 62 1020.0
20260906175519 77 28 2.0 4.0 0.00 0.00 0.00 60 1020.0
20260906175020 77 69 2.0 9.0 0.00 0.00 0.00 61 1020.0
20260906174538 77 109 1.0 9.0 0.00 0.00 0.00 62 1020.1
20260906174017 77 94 3.0 9.0 0.00 0.00 0.00 64 1020.1
20260906173519 76 106 3.0 9.0 0.00 0.00 0.00 63 1020.2
20260906173038 76 20 1.0 6.0 0.00 0.00 0.00 65 1020.2
20260906172519 76 139 3.0 6.0 0.00 0.00 0.00 62 1020.3
20260906172015 76 28 1.0 6.0 0.00 0.00 0.00 63 1020.3
20260906171534 76 0 1.0 6.0 0.00 0.00 0.00 64 1020.3
20260906171018 76 96 0.0 7.0 0.00 0.00 0.00 66 1020.3
20260906170517 76 0 1.0 7.0 0.00 0.00 0.00 63 1020.4
20260906170034 76 0 2.0 7.0 0.00 0.00 0.00 64 1020.4
20260906165520 75 352 1.0 7.0 0.00 0.00 0.00 65 1020.4
20260906165017 76 41 2.0 7.0 0.00 0.00 0.00 64 1020.5
20260906164535 76 111 2.0 7.0 0.00 0.00 0.00 66 1020.5
20260906164020 75 123 1.0 7.0 0.00 0.00 0.00 66 1020.6
20260906163518 75 131 3.0 7.0 0.00 0.00 0.00 66 1020.7
20260906163050 76 37 1.0 7.0 0.00 0.00 0.00 66 1020.6
20260906162518 76 42 2.0 7.0 0.00 0.00 0.00 65 1020.6
20260906162018 76 124 2.0 7.0 0.00 0.00 0.00 65 1020.6
20260906161535 77 101 1.0 7.0 0.00 0.00 0.00 68 1020.4
20260906161015 77 88 1.0 7.0 0.00 0.00 0.00 67 1020.4
20260906160517 77 99 2.0 6.0 0.00 0.00 0.00 68 1020.3
20260906160034 76 0 1.0 6.0 0.00 0.00 0.00 69 1020.4
20260906155521 76 75 1.0 7.0 0.00 0.00 0.00 69 1020.3
20260906155018 76 115 1.0 7.0 0.00 0.00 0.00 72 1020.3
20260906154539 76 96 3.0 7.0 0.00 0.00 0.00 70 1020.3
20260906154020 75 0 0.0 6.0 0.00 0.00 0.00 71 1020.3
20260906153520 75 44 2.0 7.0 0.00 0.00 0.00 72 1020.3
20260906153044 76 83 2.0 7.0 0.00 0.00 0.00 71 1020.3
20260906152521 76 121 3.0 7.0 0.00 0.00 0.00 73 1020.3
20260906152016 75 56 2.0 7.0 0.00 0.00 0.00 71 1020.2
20260906151535 75 117 1.0 7.0 0.00 0.00 0.00 72 1020.1
20260906151017 75 139 3.0 7.0 0.00 0.00 0.00 72 1020.2
20260906150521 74 106 2.0 6.0 0.00 0.00 0.00 72 1020.2
20260906150035 75 122 1.0 6.0 0.00 0.00 0.00 72 1020.2
20260906145516 75 92 1.0 6.0 0.00 0.00 0.00 71 1020.1
20260906145018 74 101 2.0 6.0 0.00 0.00 0.00 72 1020.2
20260906144537 74 136 1.0 8.0 0.00 0.00 0.00 72 1020.1
20260906144016 73 126 0.0 8.0 0.00 0.00 0.00 74 1020.1
20260906143517 73 97 0.0 8.0 0.00 0.00 0.00 75 1020.0
20260906143045 73 0 0.0 2.0 0.00 0.00 0.00 76 1020.0
20260906142520 72 90 0.0 4.0 0.00 0.00 0.00 77 1019.9
20260906142021 72 0 0.0 4.0 0.00 0.00 0.00 77 1019.9
20260906141533 72 102 2.0 4.0 0.00 0.00 0.00 77 1020.1
20260906141023 71 63 1.0 4.0 0.00 0.00 0.00 78 1020.0
20260906140519 71 0 1.0 5.0 0.00 0.00 0.00 79 1020.0
20260906140035 70 147 2.0 5.0 0.00 0.00 0.00 81 1019.9
20260906135518 69 121 1.0 5.0 0.00 0.00 0.00 81 1019.9
20260906135017 69 115 2.0 5.0 0.00 0.00 0.00 82 1019.9
20260906134537 68 113 1.0 7.0 0.00 0.00 0.00 83 1019.9
20260906134016 68 122 2.0 7.0 0.00 0.00 0.00 85 1019.9
20260906133515 67 96 0.0 6.0 0.00 0.00 0.00 86 1019.9
20260906133033 67 113 2.0 6.0 0.00 0.00 0.00 89 1019.8
20260906132516 66 106 1.0 3.0 0.00 0.00 0.00 91 1019.7
20260906132020 66 0 0.0 3.0 0.00 0.00 0.00 93 1019.6
20260906131539 66 138 0.0 3.0 0.00 0.00 0.00 94 1019.6
20260906131021 65 107 0.0 3.0 0.00 0.00 0.00 94 1019.5
20260906130518 65 0 0.0 3.0 0.00 0.00 0.00 94 1019.5
20260906130041 65 0 1.0 3.0 0.00 0.00 0.00 95 1019.4
20260906125516 65 100 0.0 2.0 0.00 0.00 0.00 95 1019.3
20260906125015 64 0 0.0 0.0 0.00 0.00 0.00 95 1019.1
20260906124535 64 0 0.0 0.0 0.00 0.00 0.00 95 1019.1
20260906124018 64 0 0.0 0.0 0.00 0.00 0.00 95 1019.2
20260906123517 64 0 0.0 0.0 0.00 0.00 0.00 94 1019.1
20260906123035 63 0 0.0 0.0 0.00 0.00 0.00 94 1019.1
20260906122517 63 0 0.0 0.0 0.00 0.00 0.00 94 1019.2
20260906122019 63 0 0.0 0.0 0.00 0.00 0.00 94 1019.0
20260906121537 63 0 0.0 0.0 0.00 0.00 0.00 95 1019.1
20260906121021 63 0 0.0 0.0 0.00 0.00 0.00 94 1019.0
20260906120522 63 0 0.0 0.0 0.00 0.00 0.00 94 1018.9
20260906120034 63 0 0.0 0.0 0.00 0.00 0.00 94 1018.8
20260906115520 63 0 0.0 0.0 0.00 0.00 0.00 94 1018.7
20260906115016 63 0 0.0 0.0 0.00 0.00 0.00 93 1018.7
20260906114538 63 0 0.0 0.0 0.00 0.00 0.00 93 1018.7
20260906114017 63 0 0.0 0.0 0.00 0.00 0.00 93 1018.7
20260906113517 63 0 0.0 0.0 0.00 0.00 0.00 93 1018.6
20260906113035 63 0 0.0 0.0 0.00 0.00 0.00 93 1018.4
20260906112519 63 0 0.0 0.0 0.00 0.00 0.00 93 1018.3
20260906112020 63 0 0.0 0.0 0.00 0.00 0.00 93 1018.4
20260906111536 64 0 0.0 0.0 0.00 0.00 0.00 93 1018.5
20260906111016 64 0 0.0 0.0 0.00 0.00 0.00 93 1018.4
20260906110517 64 0 0.0 0.0 0.00 0.00 0.00 93 1018.2
20260906110035 64 0 0.0 0.0 0.00 0.00 0.00 93 1018.3
20260906105517 65 0 0.0 0.0 0.00 0.00 0.00 93 1018.3
20260906105019 65 0 0.0 0.0 0.00 0.00 0.00 93 1018.2
20260906104533 65 0 0.0 0.0 0.00 0.00 0.00 93 1018.2
20260906104017 65 0 0.0 0.0 0.00 0.00 0.00 93 1018.3
20260906103519 65 0 0.0 0.0 0.00 0.00 0.00 93 1018.4
20260906103036 65 0 0.0 0.0 0.00 0.00 0.00 93 1018.3
20260906102517 65 0 0.0 0.0 0.00 0.00 0.00 93 1018.3
20260906102018 65 0 0.0 2.0 0.00 0.00 0.00 93 1018.3
20260906101537 65 0 0.0 3.0 0.00 0.00 0.00 93 1018.2
20260906101018 65 360 0.0 3.0 0.00 0.00 0.00 93 1018.2
20260906100516 65 0 0.0 0.0 0.00 0.00 0.00 93 1018.2
20260906100039 65 0 0.0 0.0 0.00 0.00 0.00 94 1018.2
20260906095517 65 0 0.0 0.0 0.00 0.00 0.00 94 1018.2
20260906095018 65 0 0.0 0.0 0.00 0.00 0.00 94 1018.2
20260906094537 64 0 0.0 0.0 0.00 0.00 0.00 94 1018.0
20260906094017 64 0 0.0 0.0 0.00 0.00 0.00 93 1018.1
20260906093518 64 0 0.0 0.0 0.00 0.00 0.00 93 1018.1
20260906093051 64 0 0.0 1.0 0.00 0.00 0.00 93 1017.9
20260906092519 64 0 0.0 3.0 0.00 0.00 0.00 93 1017.9
20260906092017 64 0 0.0 3.0 0.00 0.00 0.00 93 1017.9
20260906091540 64 9 0.0 3.0 0.00 0.00 0.00 93 1017.9
20260906091019 65 0 0.0 1.0 0.00 0.00 0.00 93 1017.8
20260906090525 65 0 0.0 4.0 0.00 0.00 0.00 93 1017.9
20260906090040 65 0 0.0 4.0 0.00 0.00 0.00 93 1018.0
20260906085520 65 343 2.0 5.0 0.00 0.00 0.00 93 1018.0
20260906085019 65 349 0.0 5.0 0.00 0.00 0.00 93 1018.0
20260906084547 64 5 2.0 5.0 0.00 0.00 0.00 93 1018.0
20260906084020 64 351 1.0 3.0 0.00 0.00 0.00 93 1018.0
20260906083517 64 0 0.0 3.0 0.00 0.00 0.00 93 1018.0
20260906083039 65 0 0.0 3.0 0.00 0.00 0.00 93 1017.9
20260906082520 65 0 0.0 3.0 0.00 0.00 0.00 93 1017.8
20260906082016 65 344 0.0 3.0 0.00 0.00 0.00 93 1017.9
20260906081539 65 0 0.0 0.0 0.00 0.00 0.00 93 1017.9
20260906081018 65 0 0.0 0.0 0.00 0.00 0.00 93 1018.0
20260906080518 65 0 0.0 0.0 0.00 0.00 0.00 94 1017.8
20260906080050 65 0 0.0 0.0 0.00 0.00 0.00 94 1017.9
20260906075517 65 0 0.0 0.0 0.00 0.00 0.00 94 1017.8
20260906075017 65 0 0.0 0.0 0.00 0.00 0.00 94 1017.9
20260906074542 65 0 0.0 0.0 0.00 0.00 0.00 94 1017.8
20260906074016 65 0 0.0 0.0 0.00 0.00 0.00 94 1017.7
20260906073516 65 0 0.0 0.0 0.00 0.00 0.00 94 1017.6
20260906073034 65 0 0.0 0.0 0.00 0.00 0.00 94 1017.6
20260906072519 65 0 0.0 0.0 0.00 0.00 0.00 94 1017.6
20260906072019 64 0 0.0 0.0 0.00 0.00 0.00 94 1017.6
20260906071536 64 0 0.0 0.0 0.00 0.00 0.00 94 1017.6
20260906071019 65 0 0.0 0.0 0.00 0.00 0.00 93 1017.6
20260906070517 65 0 0.0 0.0 0.00 0.00 0.00 93 1017.6
20260906070040 65 0 0.0 0.0 0.00 0.00 0.00 93 1017.5
20260906065518 65 0 0.0 0.0 0.00 0.00 0.00 93 1017.6
20260906065016 65 0 0.0 0.0 0.00 0.00 0.00 93 1017.7
20260906064536 65 0 0.0 0.0 0.00 0.00 0.00 94 1017.7
20260906064020 65 0 0.0 0.0 0.00 0.00 0.00 94 1017.8
20260906063518 65 0 0.0 0.0 0.00 0.00 0.00 94 1017.8
20260906063040 65 0 0.0 0.0 0.00 0.00 0.00 94 1017.8
20260906062515 65 0 0.0 0.0 0.00 0.00 0.00 94 1017.8
20260906062021 65 0 0.0 0.0 0.00 0.00 0.00 94 1017.7
20260906061541 65 0 0.0 0.0 0.00 0.00 0.00 94 1017.7
20260906061021 65 0 0.0 0.0 0.00 0.00 0.00 94 1017.7
20260906060521 65 0 0.0 0.0 0.00 0.00 0.00 94 1017.7
20260906060047 65 0 0.0 0.0 0.00 0.00 0.00 94 1017.7
20260906055519 65 0 0.0 0.0 0.00 0.00 0.00 94 1017.6
20260906055018 64 0 0.0 3.0 0.00 0.00 0.00 93 1017.6
20260906054536 64 0 0.0 3.0 0.00 0.00 0.00 93 1017.6
20260906054016 64 34 0.0 3.0 0.00 0.00 0.00 93 1017.7
20260906053518 65 0 0.0 3.0 0.00 0.00 0.00 92 1017.7
20260906053035 65 0 0.0 0.0 0.00 0.00 0.00 93 1017.7
20260906052517 65 0 0.0 3.0 0.00 0.00 0.00 93 1017.7
20260906052018 65 0 0.0 3.0 0.00 0.00 0.00 92 1017.6
20260906051537 65 0 0.0 3.0 0.00 0.00 0.00 92 1017.5
20260906051019 65 0 0.0 4.0 0.00 0.00 0.00 93 1017.5
20260906050518 65 0 0.0 7.0 0.00 0.00 0.00 92 1017.5
20260906050039 65 0 2.0 7.0 0.00 0.00 0.00 92 1017.5
20260906045516 65 352 1.0 5.0 0.00 0.00 0.00 92 1017.5
20260906045017 65 350 2.0 6.0 0.00 0.00 0.00 92 1017.5
20260906044538 66 360 2.0 7.0 0.00 0.00 0.00 92 1017.5
20260906044022 66 18 2.0 7.0 0.00 0.00 0.00 92 1017.5
20260906043517 66 5 3.0 6.0 0.00 0.00 0.00 91 1017.3
20260906043037 66 336 2.0 4.0 0.00 0.00 0.00 91 1017.2
20260906042518 66 0 0.0 3.0 0.00 0.00 0.00 91 1017.1
20260906042017 66 0 0.0 3.0 0.00 0.00 0.00 91 1017.1
20260906041544 66 42 0.0 3.0 0.00 0.00 0.00 91 1017.0
20260906041018 66 49 0.0 3.0 0.00 0.00 0.00 91 1017.0
20260906040515 67 14 1.0 5.0 0.00 0.00 0.00 91 1017.0
20260906040046 67 0 0.0 5.0 0.00 0.00 0.00 91 1017.0
20260906035522 67 337 1.0 5.0 0.00 0.00 0.00 90 1017.0
20260906035018 67 20 0.0 3.0 0.00 0.00 0.00 90 1017.2
20260906034538 67 352 0.0 3.0 0.00 0.00 0.00 90 1017.2
20260906034019 67 63 0.0 4.0 0.00 0.00 0.00 89 1017.2
20260906033518 67 30 1.0 4.0 0.00 0.00 0.00 89 1017.1
20260906033037 67 28 1.0 3.0 0.00 0.00 0.00 89 1017.1
20260906032516 67 41 0.0 4.0 0.00 0.00 0.00 89 1017.1
20260906032018 67 30 1.0 6.0 0.00 0.00 0.00 89 1017.0
20260906031539 67 18 1.0 6.0 0.00 0.00 0.00 88 1017.0
20260906031017 67 0 0.0 3.0 0.00 0.00 0.00 88 1017.1
20260906030516 67 9 1.0 4.0 0.00 0.00 0.00 88 1017.1
20260906030037 67 5 1.0 5.0 0.00 0.00 0.00 87 1017.1
20260906025521 67 24 1.0 6.0 0.00 0.00 0.00 87 1017.1
20260906025022 67 352 2.0 6.0 0.00 0.00 0.00 87 1017.2
20260906024536 67 10 2.0 6.0 0.00 0.00 0.00 87 1017.0
20260906024019 68 336 2.0 7.0 0.00 0.00 0.00 87 1016.8
20260906023520 68 19 2.0 7.0 0.00 0.00 0.00 87 1016.9
20260906023044 68 17 2.0 7.0 0.00 0.00 0.00 86 1016.8
20260906022521 68 28 2.0 7.0 0.00 0.00 0.00 86 1016.8
20260906022023 68 28 2.0 5.0 0.00 0.00 0.00 85 1016.7
20260906021540 68 38 1.0 9.0 0.00 0.00 0.00 85 1016.8
20260906021019 68 39 1.0 9.0 0.00 0.00 0.00 85 1016.8
20260906020518 69 38 1.0 6.0 0.00 0.00 0.00 85 1016.8
20260906020039 69 34 1.0 5.0 0.00 0.00 0.00 85 1016.8
20260906015518 69 35 2.0 5.0 0.00 0.00 0.00 85 1016.8
20260906015016 69 24 2.0 5.0 0.00 0.00 0.00 85 1016.7
20260906014539 69 56 1.0 5.0 0.00 0.00 0.00 85 1017.0
20260906014016 69 355 1.0 8.0 0.00 0.00 0.00 85 1016.8
20260906013518 69 360 2.0 8.0 0.00 0.00 0.00 85 1016.8
20260906013034 69 346 2.0 7.0 0.00 0.00 0.00 85 1016.7
20260906012515 69 342 2.0 7.0 0.00 0.00 0.00 85 1016.8
20260906012016 69 15 1.0 8.0 0.00 0.00 0.00 84 1016.7
20260906011538 69 5 1.0 8.0 0.00 0.00 0.00 85 1016.7
20260906011017 69 42 3.0 9.0 0.00 0.00 0.00 85 1016.8
20260906010518 69 360 4.0 9.0 0.00 0.00 0.00 84 1016.8
20260906010037 69 329 2.0 5.0 0.00 0.00 0.00 85 1016.7
20260906005516 69 15 1.0 8.0 0.00 0.00 0.00 84 1016.7
20260906005020 69 26 2.0 8.0 0.00 0.00 0.00 84 1016.7
20260906004536 70 15 2.0 7.0 0.00 0.00 0.00 86 1016.5
20260906004021 70 46 2.0 7.0 0.00 0.00 0.00 86 1016.6
20260906003516 70 11 0.0 4.0 0.00 0.00 0.00 86 1016.5
20260906003038 70 0 1.0 4.0 0.00 0.00 0.00 86 1016.5
20260906002518 70 360 1.0 6.0 0.00 0.00 0.00 86 1016.5
20260906002016 70 0 1.0 9.0 0.00 0.00 0.00 86 1016.5
20260906001540 70 352 3.0 9.0 0.00 0.00 0.00 86 1016.7
20260906001019 70 22 1.0 5.0 0.00 0.00 0.00 86 1016.6
20260906000523 70 309 1.0 5.0 0.00 0.00 0.00 86 1016.5
20260906000039 70 0 1.0 8.0 0.00 0.00 0.00 86 1016.5
20260905235519 70 43 2.0 8.0 0.00 0.00 0.00 86 1016.6
20260905235016 70 360 3.0 8.0 0.00 0.00 0.00 87 1016.7
20260905234535 70 24 2.0 8.0 0.00 0.00 0.00 87 1016.6
20260905234021 70 44 1.0 9.0 0.00 0.00 0.00 87 1016.6
20260905233516 70 48 2.0 9.0 0.00 0.00 0.00 87 1016.7
20260905233037 70 38 2.0 10.0 0.00 0.00 0.00 87 1016.7
20260905232515 70 80 3.0 10.0 0.00 0.00 0.00 87 1016.6
20260905232018 70 337 2.0 9.0 0.00 0.00 0.00 88 1016.7
20260905231549 70 19 0.0 10.0 0.00 0.00 0.00 88 1016.7
20260905231019 70 339 2.0 10.0 0.00 0.00 0.00 88 1016.7
20260905230524 70 0 3.0 10.0 0.00 0.00 0.00 88 1016.6
20260905230045 70 14 3.0 9.0 0.00 0.00 0.00 88 1016.7
20260905225518 70 63 3.0 9.0 0.00 0.00 0.00 88 1016.7
20260905225020 71 22 2.0 9.0 0.00 0.00 0.00 87 1016.6
20260905224547 71 352 4.0 9.0 0.00 0.00 0.00 87 1016.8
20260905224019 71 335 2.0 9.0 0.00 0.00 0.00 86 1016.7
20260905223522 71 52 2.0 9.0 0.00 0.00 0.00 86 1016.6
20260905223039 71 101 2.0 10.0 0.00 0.00 0.00 86 1016.5
20260905222527 71 53 3.0 10.0 0.00 0.00 0.00 86 1016.4
20260905222017 71 331 2.0 8.0 0.00 0.00 0.00 86 1016.3
20260905221541 72 339 2.0 9.0 0.00 0.00 0.00 86 1016.1
20260905221018 71 5 2.0 10.0 0.00 0.00 0.00 86 1016.2
20260905220522 72 50 2.0 10.0 0.00 0.00 0.00 85 1016.0
20260905220035 72 17 4.0 10.0 0.00 0.00 0.00 85 1016.1
20260905215516 72 13 3.0 12.0 0.00 0.00 0.00 85 1016.0
20260905215018 72 360 3.0 12.0 0.00 0.00 0.00 85 1016.0
20260905214540 72 34 4.0 13.0 0.00 0.00 0.00 84 1015.9
20260905214018 72 40 5.0 13.0 0.00 0.00 0.00 84 1015.9
20260905213520 72 15 3.0 10.0 0.00 0.00 0.00 85 1016.0
20260905213039 72 24 4.0 10.0 0.00 0.00 0.00 85 1015.8
20260905212518 72 274 4.0 10.0 0.00 0.00 0.00 84 1015.8
20260905212022 72 43 3.0 10.0 0.00 0.00 0.00 84 1015.9
20260905211535 73 69 2.0 10.0 0.00 0.00 0.00 84 1015.9
20260905211019 73 34 3.0 11.0 0.00 0.00 0.00 83 1015.8
20260905210519 73 101 3.0 12.0 0.00 0.00 0.00 84 1015.8
20260905210038 73 51 5.0 12.0 0.00 0.00 0.00 83 1015.7
20260905205518 74 344 3.0 11.0 0.00 0.00 0.00 83 1015.8
20260905205021 74 346 4.0 12.0 0.00 0.00 0.00 82 1015.8
20260905204535 75 63 3.0 12.0 0.00 0.00 0.00 81 1015.8
20260905204017 75 26 5.0 12.0 0.00 0.00 0.00 80 1015.7
20260905203519 76 24 6.0 11.0 0.00 0.00 0.00 80 1015.7
20260905203038 76 99 3.0 13.0 0.00 0.00 0.00 80 1015.6
20260905202518 76 46 4.0 13.0 0.00 0.00 0.00 80 1015.7
20260905202016 76 328 5.0 12.0 0.00 0.00 0.00 81 1015.7
20260905201539 76 0 2.0 6.0 0.00 0.00 0.00 80 1015.7
20260905201017 76 105 2.0 9.0 0.00 0.00 0.00 80 1015.7
20260905200520 76 92 3.0 13.0 0.00 0.00 0.00 80 1015.7
20260905200037 76 310 2.0 13.0 0.00 0.00 0.00 81 1015.6
20260905195519 76 0 2.0 9.0 0.00 0.00 0.00 81 1015.7